This is the latest recevied weather packets stored in our database for station/object WX4LTG. If no packets are shown the sender has not sent any weather packets the latest 10 day(s).
| Time | Temp. | Humidity | Pressure | Rain* | Wind** | Luminosity | Snow |
|---|---|---|---|---|---|---|---|
| 1777332620 | 26.67° C | 17% | 1010.7 hPa | 0 mm | - | 342 W/m² | - |
| 1777332316 | 27.22° C | 18% | 1011 hPa | 0 mm | - | 358 W/m² | - |
| 1777332013 | 27.22° C | 18% | 1010.5 hPa | 0 mm | - | 373 W/m² | - |
| 1777331711 | 26.67° C | 18% | 1010.7 hPa | 0 mm | - | 388 W/m² | - |
| 1777331407 | 26.67° C | 18% | 1010.8 hPa | 0 mm | - | 402 W/m² | - |
| 1777331105 | 27.78° C | 17% | 1010.8 hPa | 0 mm | - | 415 W/m² | - |
| 1777330802 | 26.67° C | 18% | 1010.7 hPa | 0 mm | - | 430 W/m² | - |
| 1777330499 | 26.11° C | 18% | 1010.8 hPa | 0 mm | - | 444 W/m² | - |
| 1777330196 | 26.11° C | 18% | 1011.1 hPa | 0 mm | - | 457 W/m² | - |
| 1777329894 | 25.56° C | 19% | 1011.2 hPa | 0 mm | - | 471 W/m² | - |
| 1777329593 | 25.56° C | 19% | 1011.2 hPa | 0 mm | - | 483 W/m² | - |
| 1777329290 | 26.67° C | 18% | 1011 hPa | 0 mm | - | 497 W/m² | - |
| 1777328988 | 26.67° C | 18% | 1011.2 hPa | 0 mm | - | 509 W/m² | - |
| 1777328686 | 26.67° C | 18% | 1011.4 hPa | 0 mm | - | 523 W/m² | - |
| 1777328383 | 26.67° C | 19% | 1011.5 hPa | 0 mm | - | 536 W/m² | - |
| 1777328082 | 26.67° C | 18% | 1011.4 hPa | 0 mm | - | 551 W/m² | - |
| 1777327779 | 26.67° C | 18% | 1011.4 hPa | 0 mm | - | 561 W/m² | - |
| 1777327477 | 26.11° C | 18% | 1011.5 hPa | 0 mm | - | 573 W/m² | - |
| 1777327174 | 27.22° C | 18% | 1011.7 hPa | 0 mm | - | 581 W/m² | - |
| 1777326871 | 26.11° C | 18% | 1011.7 hPa | 0 mm | - | 582 W/m² | - |
| 1777326567 | 27.22° C | 18% | 1012 hPa | 0 mm | - | 603 W/m² | - |
| 1777326265 | 25.56° C | 18% | 1011.8 hPa | 0 mm | - | 610 W/m² | - |
| 1777325962 | 26.11° C | 18% | 1012.1 hPa | 0 mm | - | 621 W/m² | - |
| 1777325661 | 25.56° C | 19% | 1012 hPa | 0 mm | - | 631 W/m² | - |
| 1777325358 | 26.11° C | 18% | 1012 hPa | 0 mm | - | 641 W/m² | - |
* Rain latest hour (hover to see other rain measurements)
** Current wind speed in m/s (hover to see current wind gust speed)